HJ3GNC-16 Weather Reports


time (UTC)temp
C
wind
direction
speed
KPH
gust
KPH
rain 1hr
cm
rain 24hr
cm
rain mn
cm
humidity
%
barometer
mb
20260504224649 26 170 0.0 0.0 0.00 0.00 0.00 78 1009.0
20260504223108 26 170 0.0 0.0 0.00 0.00 0.00 78 1009.0
20260504221526 26 170 0.0 0.0 0.00 0.00 0.00 78 1009.0
20260504215942 28 180 0.0 0.0 0.00 0.00 0.00 61 1009.0
20260504214358 28 180 0.0 0.0 0.00 0.00 0.00 61 1009.0
20260504212812 28 180 0.0 0.0 0.00 0.00 0.00 61 1009.0
20260504211229 30 190 0.0 0.0 0.00 0.00 0.00 54 1009.0
20260504205645 31 180 0.0 0.0 0.00 0.00 0.00 55 1009.0
20260504204049 31 180 0.0 0.0 0.00 0.00 0.00 55 1009.0
20260504202504 31 180 0.0 0.0 0.00 0.00 0.00 55 1010.0
20260504200851 31 180 0.0 0.0 0.00 0.00 0.00 55 1010.0
20260504195307 31 190 0.0 0.0 0.00 0.00 0.00 51 1010.0
20260504193725 30 190 0.0 0.0 0.00 0.00 0.00 54 1010.0
20260504192147 30 190 0.0 0.0 0.00 0.00 0.00 54 1010.0
20260504190555 30 190 0.0 0.0 0.00 0.00 0.00 54 1010.0
20260504185014 30 210 0.0 0.0 0.00 0.00 0.00 54 1010.0
20260504183433 30 210 0.0 0.0 0.00 0.00 0.00 54 1010.0
20260504181848 30 210 0.0 0.0 0.00 0.00 0.00 54 1012.0
20260504180306 30 190 0.0 0.0 0.00 0.00 0.00 54 1011.0
20260504174724 30 190 0.0 0.0 0.00 0.00 0.00 54 1011.0
20260504173140 30 190 0.0 0.0 0.00 0.00 0.00 54 1011.0
20260504171555 30 190 0.0 0.0 0.00 0.00 0.00 54 1013.0
20260504151022 25 20 0.0 0.0 0.00 0.00 0.00 73 1014.0
20260504141327 25 350 0.0 0.0 0.00 0.00 0.00 73 1014.0
20260504100454 25 20 0.0 0.0 0.00 0.00 0.00 73 1012.0
20260504081339 25 0 0.0 0.0 0.00 0.00 0.00 73 1011.0
20260504050204 26 210 0.0 0.0 0.00 0.00 0.00 69 1013.0
20260504044618 26 210 0.0 0.0 0.00 0.00 0.00 69 1013.0
20260504043033 26 210 0.0 0.0 0.00 0.00 0.00 69 1013.0
20260504041448 26 210 0.0 0.0 0.00 0.00 0.00 69 1013.0
20260504035905 27 160 0.0 0.0 0.00 0.00 0.00 65 1013.0
20260504034310 27 160 0.0 0.0 0.00 0.00 0.00 65 1013.0
20260504032720 27 160 0.0 0.0 0.00 0.00 0.00 65 1013.0
20260504031134 27 160 0.0 0.0 0.00 0.00 0.00 65 1013.0
20260504025541 27 190 0.0 0.0 0.00 0.00 0.00 69 1013.0
20260504023910 27 190 0.0 0.0 0.00 0.00 0.00 69 1013.0
20260504022322 27 190 0.0 0.0 0.00 0.00 0.00 69 1012.0
20260504020719 27 190 0.0 0.0 0.00 0.00 0.00 69 1012.0
20260504015129 27 170 0.0 0.0 0.00 0.00 0.00 69 1012.0
20260504013527 27 170 0.0 0.0 0.00 0.00 0.00 69 1012.0
20260504011922 27 170 0.0 0.0 0.00 0.00 0.00 69 1011.0
20260504010248 27 200 0.0 0.0 0.00 0.00 0.00 69 1011.0
20260504004646 27 200 0.0 0.0 0.00 0.00 0.00 65 1011.0
20260504001138 27 200 0.0 0.0 0.00 0.00 0.00 65 1009.0
20260503235525 27 190 0.0 0.0 0.00 0.00 0.00 65 1009.0
20260503233906 28 190 0.0 0.0 0.00 0.00 0.00 58 1009.0
20260503230728 28 190 0.0 0.0 0.00 0.00 0.00 58 1009.0
20260503225132 28 200 0.0 0.0 0.00 0.00 0.00 58 1009.0